Location: Kuffner-Sternwarte
(48.2130°N, 16.2960°E)
Time: 15:20:38
(UTC+02:00)

COROT - Pass Details

Date: 24 March 2017
Orbit: 600 x 890 km, 90.0° (Epoch: 27 March)

Event Time Altitude Azimuth Distance (km) Brightness Sun altitude
Rises 00:06:07 0° 7° (N) 3,049 10.0 -40.4°
Reaches altitude 10° 00:08:24 10° 14° (NNE) 2,171 9.0 -40.4°
Enters shadow 00:09:05 14° 17° (NNE) 1,923 8.6 -40.4°
